Regional Weather Roundup
Issued by NWS

Home | Current Version | Previous Version | Text Only | Print | Product List | Glossary Off
Versions: 1 2 3 4 5 6 7 8 9 10 11 12 13 14 15 16 17 18 19 20 21 22 23 24 25 26 27 28 29 30 31 32 33 34 35 36 37 38 39 40 41 42 43 44 45 46 47 48 49 50

000
ASUS43 KLSX 290459
RWRMO

WEATHER SUMMARY FOR MISSOURI
NATIONAL WEATHER SERVICE SPRINGFIELD MO
1200 AM CDT SUN MAR 29 2015

NOTE: "FAIR" INDICATES FEW OR NO CLOUDS BELOW 12,000 FEET WITH NO
       SIGNIFICANT WEATHER AND/OR OBSTRUCTIONS TO VISIBILITY.
       CURRENT SKY AND/OR WEATHER CONDITIONS ARE NOT AVAILABLE FOR
       CHILLICOTHE AND FARMINGTON.

MOZ001>031-035>038-043-044-053-054-290600-
...NORTHERN AND WESTERN MISSOURI...

CITY           SKY/WX    TMP DP  RH WIND       PRES   REMARKS
KANSAS CTY INT CLEAR     42  31  64 SE17      30.07F
KANSAS C DTWN  CLEAR     44  31  60 SE12G21   30.10F
LEE`S SUMMIT   CLEAR     40  32  73 SE8       30.11F
ST JOSEPH      CLEAR     43  31  62 S15       30.07F
CHILLICOTHE      N/A     41  30  65 SE10      30.13F
KIRKSVILLE     CLEAR     34  25  69 SE13      30.16F WCI  25

$$
MOZ066>068-077>081-088>096-101>105-290600-
...SOUTHWEST MISSOURI...

CITY           SKY/WX    TMP DP  RH WIND       PRES   REMARKS
SPRINGFIELD    CLEAR     36  31  82 SE22      30.16S WCI  25
JOPLIN         CLEAR     40  33  76 SE12      30.12S

$$
MOZ032>034-039>042-045>050-055>058-069>072-290600-
...CENTRAL MISSOURI...

CITY           SKY/WX    TMP DP  RH WIND       PRES   REMARKS
COLUMBIA       CLEAR     36  30  79 SE9       30.20F WCI  29
JEFFERSON CITY CLEAR     36  29  75 SE9       30.22F WCI  29
ROLLA          CLEAR     35  28  75 SE14      30.21R WCI  26
SEDALIA        CLEAR     39  31  72 SE14      30.16F
OSAGE BEACH    CLEAR     37  28  70 SE8       30.20S

$$
MOZ051-052-059>065-290600-
...EAST CENTRAL MISSOURI...

CITY           SKY/WX    TMP DP  RH WIND       PRES   REMARKS
ST LOUIS INTL  CLEAR     39  16  39 SE9       30.28F
SPIRIT OF STL  CLEAR     37  18  46 SE8       30.27S
ST CHARLES     CLEAR     31  25  78 E7        30.28S WCI  24

$$
MOZ072>076-082>087-097>100-106>115-290600-
...SOUTH CENTRAL AND SOUTHEAST MISSOURI...

CITY           SKY/WX    TMP DP  RH WIND       PRES   REMARKS
CAPE GIRARDEAU CLEAR     32  26  78 E6        30.32S WCI  26
FARMINGTON     CLEAR     34  23  64 SE7       30.30F WCI  28
POPLAR BLUFF   CLEAR     35  31  85 CALM      30.31S
WEST PLAINS    CLEAR     33  28  81 SE6       30.26S WCI  28

$$


USA.gov is the U.S. government's official web portal to all federal, state and local government web resources and services.